THORAD DELTA 1 DEB, 8178

Orbit data source: Space-Track

THORAD DELTA 1 DEB, 8178 is space debris in SSO originally from a launch on Fri, 15 Nov 1974 UTC launched from the Air Force Western Test Range (AFWTR). Debris objects in space refer to the collection of defunct objects orbiting the Earth. Examples of debris include non-operational satellites, rocket bodies, and fragments generated from explosions, collisions, or faulty payload assembly.

Loading next visibility...
Identifier
8178, 1974-089AU
Orbit
SSO
Country
Flag of USUS
Related business
Manufacturer
Unknown
Mission
Spacecraft
Bus & Motor
Unknown
Mass
Unknown
Launch date (UTC)
1974-11-15 (51 years ago)
Launch vehicle
Unknown
Launch site
Air Force Western Test Range (AFWTR)
Object type
Payload
Rocket body
Debris
Shape & HBR
Unknown shape, 0.1 m
Radar Cross Section
Small (<0.1 m²)

Expand to show TLE details & history
Last TLE update: 3 days ago

TLE from 3 days ago
0 THORAD DELTA 1 DEB
1 08178U 74089AU  25300.13238414  .00000876  00000-0  52371-2 0  9999
2 08178 102.2470 354.9776 0186826  91.0493 297.4463 12.56219114296644
Epoch: 2025-10-27T03:10Z
TLE epoch observation values (Epoch: 2025-10-27T03:10:37.989Z)
Latitude
25.95877°
Longitude
-94.45523°
Altitude
1,376.286 km
Speed
7.203 km/s
True Right ascension
23h 15m 46s
True Declination
25° 50' 04"
Sunlit
Object was in full shadow at epoch
Visualization orbit readout
Latitude
Unknown
Longitude
Unknown
Altitude
Unknown
Speed
Unknown
Apparent Right ascension
Unknown
Apparent Declination
Unknown
Sunlit
N/A
Visualization observer readout
Local Sidereal Time
00:08:18
Azimuth
Unknown
Elevation
Unknown
Doppler factor
Unknown
Orbital elements
Apogee altitude
1,582.148 km
Perigee altitude
1,290.165 km
Semi-major axis
7,814.294 km
Eccentricity
0.01868
Inclination
102.247°
RAAN
354.9776°
Arg. of periapsis
91.0493°
True anomaly
295.5261°
Mean anomaly
297.4463°
Eccentric anomaly
296.48823°
Mean motion
3.14202 °/min
Orbital period
114.58 mins
BSTAR
0.0052371
Loading maneuver chart data...
Computing Atmospheric mass density...

Documentation

Showing up to 5 results
|